Location: Cañada de la Miga
(34.7595°N, 106.2317°W)
Time: 11:13:07
(UTC+00:00)

Transit 4A - Pass Details

Date: 07 December 2021
Orbit: 863 x 981 km, 66.8° (Epoch: 26 January)

Event Time Altitude Azimuth Distance (km) Brightness Sun altitude
Rises 03:17:12 0° 265° (W) 3,467 11.7 -41.0°
Reaches altitude 10° 03:21:42 10° 297° (WNW) 2,557 10.7 -42.0°
Maximum altitude 03:23:40 12° 317° (NW) 2,454 10.4 -42.4°
Enters shadow 03:23:58 12° 320° (NW) 2,459 10.4 -42.4°
